Temp
75 79 73 74 74 74 74 73 74 74 75 75 75 75 75 75 75 75 75 76 76 77 77 77 77 77 77 76 75 75 74 73 73 74 75 75 75 75 74 73 75 79 74
77 79 73 73 74 74 74 73 74 74 75 75 75 75 75 75 75 75 75 76 77 77 77 76 76 76 76 75 74 73 73 72 72 73 74 76 75 75 74 73 73 77 74
74 79 78 73 74 74 74 74 74 75 75 75 75 75 75 75 75 75 75 76 76 77 77 77 77 77 75 74 73 73 72 72 71 72 74 80 79 75 74 73 73 73 73
75 78 79 73 73 74 74 74 74 75 75 75 75 75 75 75 75 75 75 75 76 77 77 77 77 76 74 73 72 72 72 71 70 73 79 80 79 74 74 73 73 73 73
75 78 78 72 73 73 73 74 74 74 74 74 74 75 75 75 75 75 75 75 76 77 77 77 76 74 72 71 71 71 70 70 70 76 80 79 79 75 73 73 73 72 72
75 77 73 71 72 73 73 74 73 73 73 73 74 74 75 75 75 75 74 75 76 76 76 75 74 72 71 70 70 70 69 69 72 79 79 76 77 74 73 72 71 71 71
71 75 74 70 72 73 73 73 73 72 72 73 73 74 74 74 74 73 73 74 74 75 75 74 73 71 71 70 70 69 68 68 78 79 79 78 76 73 73 72 71 71 71
67 69 72 72 71 71 72 71 71 71 72 72 73 73 73 73 72 72 72 72 72 72 72 72 71 71 71 70 69 68 68 69 77 77 77 78 73 73 72 71 71 70 70
64 65 67 67 68 69 69 69 70 70 71 71 71 71 71 71 71 71 72 72 72 71 71 71 71 70 70 69 68 66 66 67 76 76 77 78 72 72 72 71 71 70 69
62 63 63 63 64 65 67 68 69 69 69 70 70 70 69 70 71 71 71 71 71 71 71 70 70 69 68 67 66 65 65 66 75 76 76 76 71 72 71 71 70 69 68
60 60 61 61 62 66 68 70 70 70 69 69 70 68 69 76 75 75 70 70 70 68 68 68 67 66 66 66 65 65 67 74 74 75 76 69 71 71 70 69 69 69 68
57 59 60 61 61 67 70 67 69 69 69 70 72 72 74 73 73 74 71 67 67 67 66 66 66 66 69 73 72 68 72 71 73 74 75 67 71 70 70 69 68 68 67
60 60 61 61 61 63 66 66 68 67 68 68 68 70 69 71 72 73 72 72 71 68 71 70 70 71 68 71 70 69 69 70 72 73 69 65 68 70 69 68 68 67 67
61 60 60 61 61 64 66 67 66 70 67 67 68 70 71 71 70 70 70 69 69 68 67 68 68 66 67 67 67 66 67 69 71 71 69 62 66 69 69 68 68 67 66
61 63 62 63 64 66 65 66 66 68 70 71 71 72 72 70 68 69 67 68 68 69 68 68 68 68 66 66 66 66 65 65 66 70 71 61 63 66 69 68 68 67 66
64 64 65 66 68 67 66 67 69 69 70 69 70 70 69 69 66 67 67 68 68 69 69 69 68 67 66 66 64 64 64 65 65 66 69 68 61 64 67 67 67 66 66
67 68 66 66 68 67 66 67 66 68 68 69 69 68 68 68 67 66 67 66 66 66 66 66 65 65 65 64 62 63 64 63 64 64 66 67 67 61 63 65 65 65 65
67 66 67 68 68 67 67 68 67 67 68 67 66 66 67 67 66 66 66 65 65 66 66 65 64 64 64 64 62 62 63 62 61 61 63 65 65 67 62 60 61 62 62
68 68 68 68 67 66 67 68 67 67 67 67 65 66 66 66 66 66 66 64 64 64 63 64 62 64 63 63 61 61 61 61 60 62 61 61 61 63 65 57 58 59 60
69 68 69 68 68 67 67 65 66 65 65 65 66 68 66 66 65 64 63 62 63 63 62 63 61 61 61 62 62 59 58 59 61 60 60 61 60 60 62 61 63 60 56
67 68 68 67 66 66 64 65 64 61 62 63 66 65 64 65 64 63 63 62 63 63 61 61 60 58 59 59 59 59 57 57 57 59 60 61 59 59 59 61 63 63 61
68 68 67 68 66 67 69 68 67 64 63 65 65 64 64 63 63 62 61 62 62 61 59 59 58 57 59 57 58 56 54 54 56 56 58 58 55 59 59 58 58 58 59
68 67 68 68 67 67 68 67 63 61 60 61 62 62 63 62 63 62 61 60 59 60 59 58 57 56 55 54 54 57 53 52 53 55 53 56 55 57 58 57 56 56 56
67 68 68 68 67 67 66 66 63 63 62 62 60 61 61 60 60 61 60 59 58 58 57 57 55 52 55 54 54 56 55 54 51 49 54 55 54 54 54 56 55 55 55
68 66 67 67 66 66 64 64 62 62 62 59 58 57 57 58 59 59 59 57 57 57 56 55 53 53 55 55 56 54 53 53 51 48 46 50 54 55 55 54 54 54 53
67 66 66 64 65 64 63 64 62 61 58 56 53 53 55 57 56 57 58 57 57 56 54 54 49 49 54 54 55 53 53 51 51 48 46 47 46 50 53 53 52 53 53
MSLP
1014.46 1015.01 1015.66 1016.01 1016.25 1016.54 1016.72 1017.00 1017.38 1017.77 1018.04 1018.45 1018.81 1019.10 1019.51 1019.97 1020.35 1020.42 1020.44 1020.52 1020.80 1020.85 1021.00 1021.29 1021.31 1021.35 1021.60 1021.57 1021.63 1021.72 1022.07 1022.08 1021.97 1022.00 1022.11 1022.07 1021.95 1021.89 1021.90 1021.90 1021.57 1021.63 1021.92
1014.44 1015.03 1015.98 1016.24 1016.44 1016.79 1017.12 1017.33 1017.63 1017.89 1018.33 1018.67 1019.03 1019.49 1019.95 1020.31 1020.59 1020.74 1020.63 1020.76 1021.11 1021.12 1021.22 1021.26 1021.39 1021.51 1021.68 1022.00 1022.09 1022.27 1022.44 1022.44 1022.35 1022.55 1022.47 1022.35 1022.32 1022.51 1022.55 1022.33 1022.23 1022.27 1022.21
1014.56 1015.30 1016.12 1016.59 1016.93 1017.13 1017.44 1017.79 1017.95 1018.24 1018.49 1018.80 1019.18 1019.84 1020.06 1020.52 1020.80 1020.98 1021.29 1021.03 1021.16 1021.14 1021.21 1021.49 1021.53 1021.83 1022.05 1022.45 1022.71 1022.73 1022.90 1022.89 1022.89 1022.93 1022.63 1022.36 1022.74 1022.92 1023.06 1022.91 1022.80 1022.70 1022.64
1014.78 1015.45 1016.09 1016.79 1017.19 1017.70 1017.88 1018.13 1018.33 1018.63 1018.90 1019.29 1019.32 1019.98 1020.29 1020.73 1020.92 1021.26 1021.59 1021.59 1021.37 1021.41 1021.40 1021.75 1022.00 1022.05 1022.69 1023.08 1022.94 1023.15 1023.35 1023.49 1023.46 1023.19 1023.00 1022.80 1023.00 1023.41 1023.43 1023.23 1023.05 1023.13 1023.02
1014.95 1015.45 1016.21 1016.92 1017.39 1017.87 1018.07 1018.41 1018.74 1019.07 1019.29 1019.36 1019.71 1020.16 1020.53 1020.88 1021.24 1021.58 1021.66 1021.79 1021.58 1021.85 1021.84 1022.03 1022.47 1022.67 1022.95 1023.37 1023.37 1023.52 1023.67 1023.76 1023.73 1023.39 1023.30 1023.36 1023.41 1023.95 1023.97 1023.80 1023.63 1023.67 1023.68
1015.10 1015.72 1016.43 1016.88 1017.48 1017.89 1018.17 1018.56 1018.92 1019.36 1019.78 1019.83 1020.28 1020.43 1020.72 1021.23 1021.85 1021.80 1021.88 1022.01 1022.05 1022.29 1022.49 1022.43 1022.94 1023.23 1023.36 1023.67 1023.80 1023.98 1023.95 1024.05 1023.77 1023.61 1023.68 1023.84 1023.77 1024.14 1024.32 1024.34 1024.14 1024.15 1024.20
1015.62 1015.98 1016.58 1017.04 1017.58 1018.09 1018.53 1018.72 1019.29 1019.47 1019.89 1020.41 1020.53 1020.71 1020.87 1021.48 1022.11 1022.24 1022.26 1022.39 1022.47 1022.81 1022.77 1023.05 1023.23 1023.33 1023.68 1023.80 1024.02 1024.40 1024.57 1024.54 1023.96 1023.95 1024.04 1024.18 1024.31 1024.38 1024.63 1024.70 1024.61 1024.64 1024.47
1015.98 1016.48 1016.74 1017.29 1017.80 1018.14 1018.92 1018.89 1019.57 1019.36 1020.25 1020.44 1020.80 1020.99 1021.19 1021.79 1022.20 1022.68 1022.73 1022.95 1022.94 1023.28 1023.28 1023.43 1023.43 1023.62 1023.99 1024.08 1024.45 1024.70 1024.90 1024.84 1024.34 1024.15 1024.25 1024.38 1024.70 1024.75 1024.92 1025.11 1025.10 1025.08 1025.00
1016.46 1016.81 1017.36 1018.03 1018.95 1019.12 1019.08 1019.47 1019.87 1019.90 1020.59 1020.73 1021.11 1021.30 1021.71 1022.06 1022.32 1022.79 1023.02 1023.28 1023.61 1023.51 1023.63 1023.79 1023.96 1024.10 1024.32 1024.70 1024.81 1024.89 1025.21 1025.16 1024.74 1024.56 1024.53 1024.54 1025.07 1025.17 1025.17 1025.19 1025.36 1025.35 1025.22
1017.14 1017.46 1017.60 1018.47 1019.83 1020.63 1019.99 1020.94 1020.56 1020.25 1020.88 1021.07 1021.38 1021.79 1022.02 1022.46 1022.79 1023.01 1023.20 1023.44 1023.67 1023.87 1023.90 1024.13 1024.26 1024.66 1024.85 1025.10 1025.37 1025.19 1025.45 1025.46 1025.08 1024.95 1024.91 1025.03 1025.37 1025.53 1025.53 1025.56 1025.43 1025.69 1025.62
1018.23 1018.26 1018.54 1018.95 1019.98 1020.49 1020.20 1020.62 1021.31 1020.89 1021.29 1021.37 1021.77 1022.09 1022.45 1022.67 1023.11 1023.22 1023.46 1023.68 1023.95 1024.32 1024.42 1024.52 1024.75 1024.97 1025.19 1025.48 1025.55 1025.67 1025.49 1025.55 1025.43 1025.31 1025.21 1025.70 1025.51 1025.60 1025.69 1025.91 1025.98 1025.85 1026.03
1018.88 1019.36 1018.68 1019.58 1019.89 1019.90 1020.97 1020.83 1021.21 1021.61 1021.52 1021.96 1022.14 1022.34 1022.66 1023.09 1023.29 1023.54 1023.72 1024.07 1024.43 1024.65 1024.84 1024.88 1025.18 1025.36 1025.25 1025.50 1025.78 1025.78 1025.88 1025.99 1025.64 1025.61 1025.55 1025.92 1025.68 1025.87 1025.90 1026.07 1026.11 1026.23 1026.22
1019.49 1019.77 1020.05 1019.82 1019.87 1020.46 1021.29 1021.41 1020.98 1021.82 1022.10 1022.40 1022.48 1022.44 1023.05 1023.40 1023.67 1023.91 1024.10 1024.46 1024.72 1024.81 1024.81 1025.20 1025.61 1025.67 1025.93 1025.99 1026.09 1026.21 1026.37 1026.22 1026.06 1025.98 1025.99 1026.05 1025.99 1025.68 1025.92 1026.14 1026.22 1026.31 1026.45
1019.76 1020.17 1020.60 1020.80 1021.21 1021.52 1021.05 1021.27 1021.81 1022.22 1022.38 1022.56 1022.59 1022.95 1023.18 1023.51 1023.89 1024.22 1024.49 1024.82 1024.89 1024.98 1025.30 1025.57 1025.81 1026.20 1026.28 1026.54 1026.56 1026.63 1026.63 1026.43 1026.41 1026.35 1026.28 1026.43 1026.17 1025.88 1025.82 1026.15 1026.31 1026.44 1026.63
1020.00 1020.50 1020.84 1020.94 1021.48 1021.50 1021.46 1021.72 1021.87 1022.13 1022.33 1022.33 1022.43 1023.08 1023.17 1023.69 1024.15 1024.37 1024.78 1025.07 1025.06 1025.21 1025.53 1025.84 1025.97 1026.10 1026.33 1026.75 1026.93 1026.85 1027.09 1026.97 1026.77 1026.53 1026.39 1026.68 1026.43 1026.08 1025.83 1026.08 1026.36 1026.57 1026.76
1020.15 1020.39 1020.74 1020.74 1020.86 1021.32 1021.64 1021.84 1021.88 1022.06 1022.24 1022.39 1022.68 1023.08 1023.41 1023.96 1024.09 1024.35 1024.76 1025.14 1025.34 1025.30 1025.83 1025.84 1026.15 1026.41 1026.72 1026.89 1027.28 1027.42 1027.50 1027.23 1026.98 1026.79 1026.63 1026.64 1026.74 1026.33 1026.07 1026.23 1026.41 1026.60 1026.78
1019.76 1020.09 1020.65 1020.85 1021.08 1021.06 1021.39 1021.62 1021.88 1022.08 1022.26 1022.63 1022.84 1023.23 1023.56 1023.81 1024.15 1024.39 1024.78 1025.32 1025.68 1025.78 1026.10 1026.43 1026.80 1026.94 1026.90 1027.29 1027.58 1027.76 1027.69 1027.53 1027.31 1027.04 1026.98 1026.99 1026.87 1026.92 1026.72 1026.70 1026.81 1026.86 1027.02
1019.59 1019.96 1020.33 1020.47 1020.80 1020.91 1021.34 1021.57 1021.90 1022.16 1022.16 1022.66 1023.11 1023.50 1023.68 1023.96 1024.24 1024.59 1025.05 1025.51 1025.76 1026.02 1026.34 1026.51 1026.84 1026.87 1027.14 1027.39 1027.64 1027.84 1028.11 1027.88 1027.77 1027.52 1027.52 1027.40 1027.42 1027.26 1027.36 1027.37 1027.38 1027.45 1027.52
1019.37 1019.70 1020.05 1020.42 1020.74 1020.83 1021.13 1021.39 1021.87 1022.09 1022.46 1022.84 1023.32 1023.54 1023.76 1024.09 1024.43 1024.65 1025.10 1025.66 1025.95 1026.33 1026.50 1026.69 1027.08 1027.02 1027.25 1027.40 1027.65 1028.02 1028.33 1028.21 1028.05 1027.89 1027.88 1027.93 1028.01 1027.77 1027.60 1027.99 1027.89 1027.86 1027.81
1018.92 1019.31 1019.57 1019.97 1020.24 1020.55 1020.85 1021.47 1021.99 1022.37 1022.66 1023.08 1023.33 1023.34 1023.78 1024.04 1024.40 1024.89 1025.51 1026.05 1026.08 1026.37 1026.66 1026.91 1026.97 1027.71 1028.01 1028.00 1027.84 1027.94 1028.14 1028.30 1028.31 1028.30 1028.33 1028.22 1028.20 1028.14 1027.98 1028.01 1028.01 1028.18 1028.28
1018.50 1018.91 1019.15 1019.50 1019.89 1020.48 1021.02 1021.38 1021.87 1022.16 1022.88 1023.30 1023.27 1023.59 1023.70 1024.03 1024.56 1025.03 1025.42 1026.01 1026.16 1026.33 1026.67 1026.90 1027.43 1027.99 1028.16 1028.20 1027.86 1027.87 1028.14 1028.43 1028.43 1028.39 1028.38 1028.20 1028.26 1028.25 1028.30 1028.13 1028.08 1028.12 1028.10
1017.83 1018.20 1018.62 1019.07 1019.60 1020.22 1020.41 1020.72 1021.23 1022.09 1022.87 1022.75 1023.07 1023.54 1023.93 1024.13 1024.49 1024.92 1025.30 1025.66 1026.16 1026.44 1026.86 1027.19 1027.48 1027.80 1027.87 1027.76 1027.56 1027.82 1027.50 1027.97 1028.20 1028.33 1028.40 1028.42 1028.61 1028.48 1028.36 1028.42 1028.39 1028.38 1028.33
1016.77 1017.26 1017.98 1018.75 1019.35 1019.82 1020.05 1020.62 1021.57 1022.37 1022.85 1023.26 1023.54 1023.50 1023.89 1024.13 1024.49 1024.90 1025.29 1025.41 1026.03 1026.49 1027.00 1027.27 1027.27 1027.02 1027.74 1027.88 1027.58 1027.45 1027.13 1027.12 1027.71 1028.09 1028.27 1028.40 1028.59 1028.43 1028.41 1028.43 1028.43 1028.48 1028.55
1015.89 1016.85 1017.52 1017.99 1018.55 1019.25 1019.84 1020.28 1020.49 1021.13 1021.82 1022.23 1023.11 1023.46 1023.84 1024.30 1024.71 1024.93 1025.22 1025.49 1025.99 1026.46 1026.72 1027.16 1027.79 1027.78 1027.37 1027.44 1027.75 1027.76 1027.75 1027.82 1027.56 1027.25 1027.82 1028.00 1028.24 1028.20 1028.33 1028.31 1028.38 1028.55 1028.57
1015.41 1016.15 1016.80 1017.60 1018.38 1019.01 1019.73 1020.06 1020.46 1020.81 1021.31 1022.20 1023.00 1023.65 1024.23 1024.61 1024.73 1025.00 1025.31 1025.50 1025.60 1025.91 1026.36 1026.31 1027.53 1027.98 1027.61 1027.35 1027.29 1027.41 1027.63 1027.87 1028.07 1027.80 1027.07 1027.39 1027.76 1027.74 1027.93 1028.10 1028.21 1028.35 1028.48
1014.98 1015.54 1016.22 1017.03 1017.77 1018.54 1019.22 1019.49 1019.99 1020.22 1020.81 1021.89 1022.83 1023.44 1023.96 1024.30 1024.75 1024.84 1025.15 1025.32 1025.38 1025.55 1025.96 1026.57 1027.05 1027.31 1027.03 1027.05 1027.35 1027.49 1027.45 1027.52 1027.49 1027.69 1027.45 1027.38 1027.55 1027.60 1027.67 1027.81 1027.97 1028.04 1028.13
Wind_Speed
18 19 16 16 17 18 20 21 22 22 22 22 21 21 20 20 18 17 18 18 17 17 18 16 15 17 17 19 19 19 18 18 17 17 17 19 19 19 18 18 14 17 18
20 21 18 17 17 18 19 20 21 22 22 22 22 20 20 19 18 17 18 18 17 17 17 16 16 17 18 18 18 17 18 17 16 16 15 19 20 19 19 19 17 16 18
18 20 20 18 18 18 19 19 20 21 22 22 22 20 21 19 19 18 16 18 18 18 20 20 20 19 18 17 15 16 16 16 14 14 13 13 16 18 18 18 18 18 18
17 19 20 18 19 19 20 20 21 21 22 21 23 20 21 19 19 18 17 17 17 18 20 20 20 20 18 15 15 15 16 15 14 10 11 12 13 17 17 17 18 17 17
18 19 18 18 19 20 20 20 19 19 19 21 21 21 20 20 18 17 17 16 17 17 20 19 18 18 16 14 15 15 15 13 10 11 13 12 11 14 16 15 15 16 16
17 17 18 19 19 20 19 19 20 18 17 19 19 20 20 19 17 16 16 16 16 17 18 19 17 15 14 14 14 14 14 12 8 11 11 11 12 15 15 15 15 15 15
11 15 16 18 18 17 17 19 17 19 16 17 18 19 20 18 15 14 15 15 15 14 16 15 14 14 14 14 14 12 11 8 10 10 10 10 11 15 14 14 15 15 16
9 6 11 16 17 17 16 18 16 18 15 16 17 18 18 15 14 13 14 13 13 12 12 12 12 13 13 13 12 10 9 6 8 10 10 9 12 14 14 14 14 14 14
11 9 6 13 11 11 14 13 14 15 14 15 15 16 15 12 12 12 12 14 13 12 11 12 12 13 13 13 13 12 10 9 8 7 8 6 11 12 12 13 12 13 14
13 10 15 17 13 7 8 7 11 15 12 13 15 14 13 12 11 11 11 11 12 12 12 13 14 15 16 15 13 13 10 7 7 7 5 7 9 10 11 11 13 13 14
11 16 14 17 12 8 6 9 9 13 11 12 12 13 10 9 9 9 10 10 10 13 14 16 17 16 15 15 14 11 6 5 5 4 4 7 8 8 10 10 11 12 12
15 15 15 13 7 8 4 6 7 6 6 6 8 9 7 7 7 7 9 12 14 16 18 18 17 14 10 7 6 8 5 5 4 3 4 9 4 6 8 9 10 11 12
15 12 10 9 8 7 4 2 4 3 4 4 7 7 6 5 5 5 6 6 6 9 8 10 9 7 10 7 7 5 5 5 4 3 5 8 8 5 7 8 9 10 11
14 13 11 12 11 6 1 4 4 6 4 4 5 7 5 4 5 5 5 6 6 5 8 7 6 8 10 9 8 7 6 4 3 3 5 10 8 6 6 8 9 10 10
15 16 14 14 13 8 5 2 1 4 5 5 6 5 5 5 6 6 6 5 6 7 7 6 6 7 8 8 7 6 6 5 5 3 3 9 7 4 1 8 9 10 9
18 17 16 13 8 6 6 7 6 5 6 5 5 4 6 6 7 7 7 6 6 6 6 6 6 6 6 6 6 5 5 5 6 5 4 4 10 7 3 7 7 7 7
17 18 15 13 8 8 5 6 4 4 5 5 4 7 8 8 8 8 7 6 6 7 9 7 6 6 5 5 6 5 4 5 4 6 5 4 4 12 10 8 6 5 6
17 16 13 11 9 8 7 6 5 5 4 5 5 5 8 8 9 8 7 6 6 6 5 5 4 4 4 4 4 4 3 4 5 5 4 4 4 4 10 15 12 9 6
16 15 15 12 11 9 8 6 6 6 4 4 5 5 8 8 9 7 7 7 7 6 5 4 4 3 3 3 4 3 3 3 4 4 6 5 5 4 4 10 10 9 8
15 14 13 11 10 9 7 5 5 4 3 4 5 6 9 8 9 9 7 8 6 6 5 4 5 4 2 0 2 4 3 3 3 3 4 3 5 5 4 4 3 5 7
15 15 15 13 12 10 7 7 6 5 5 4 5 8 9 9 10 10 8 7 6 5 5 5 4 3 2 1 3 2 3 3 3 3 2 2 3 3 3 2 2 0 3
18 17 16 15 13 12 10 8 4 6 5 5 5 7 9 11 11 9 10 8 7 6 6 5 5 4 2 1 1 2 2 5 4 4 2 1 2 1 2 2 2 1 2
19 19 15 14 13 13 12 8 4 6 4 4 7 7 8 10 10 11 10 9 8 6 5 5 6 7 3 2 4 2 2 2 2 3 4 2 2 2 1 2 0 1 1
16 13 14 15 15 13 14 13 13 11 10 6 7 7 8 9 10 11 10 10 8 6 7 4 2 2 5 4 4 2 1 2 3 4 2 3 3 5 4 3 3 1 2
15 15 15 14 14 14 13 13 10 10 5 6 7 10 8 8 10 10 10 11 10 7 7 9 7 4 3 3 2 3 2 2 3 5 7 4 4 4 4 4 3 3 2
13 14 14 13 14 12 12 14 15 14 12 11 10 9 8 8 8 11 10 9 10 9 10 8 6 7 6 4 3 3 3 3 3 5 6 7 7 6 5 5 4 4 3
Wind_Direction
157 153 149 143 133 127 124 124 124 122 121 121 120 117 115 113 113 112 109 104 102 103 103 102 100 101 99 98 92 87 84 74 67 68 72 69 65 63 61 54 52 57 54
151 151 148 145 138 132 127 124 124 125 127 126 120 118 117 117 115 112 110 108 107 102 99 101 105 108 105 103 94 87 81 76 73 72 69 74 67 61 60 58 50 56 56
145 149 149 144 142 136 132 131 132 133 131 126 121 124 120 119 115 111 113 110 107 104 101 99 102 107 110 106 95 88 85 81 79 76 75 74 70 69 65 62 59 58 56
143 150 152 147 143 140 139 141 139 135 132 132 124 124 120 118 114 113 110 108 106 101 101 100 100 101 104 103 97 90 86 83 79 80 72 68 72 69 69 68 64 60 61
146 150 151 143 141 143 142 139 135 130 126 128 125 124 121 117 116 117 115 113 106 100 98 98 99 100 101 101 97 93 93 86 80 76 71 64 65 62 60 59 68 67 61
147 154 145 141 144 144 140 134 128 124 127 120 126 122 120 118 121 117 115 112 103 96 96 93 98 104 106 103 97 97 92 88 81 76 74 77 67 64 60 60 64 66 64
151 153 149 142 141 134 130 123 121 122 120 125 124 125 123 121 122 114 106 101 100 101 95 98 102 105 110 107 101 97 97 87 86 78 70 64 64 63 60 59 61 61 63
94 134 143 134 127 120 121 121 125 119 128 126 129 126 122 125 116 108 100 98 94 96 103 105 96 102 112 106 105 96 91 85 85 78 72 69 66 69 67 65 64 62 60
74 100 121 101 95 87 102 108 127 114 128 127 127 123 119 119 111 103 98 99 102 97 98 106 100 92 93 84 80 75 66 56 79 74 74 72 78 77 77 74 71 68 66
91 85 104 97 94 105 88 63 103 105 111 120 119 120 118 108 105 101 104 98 99 98 95 96 85 79 84 87 82 76 75 71 72 79 79 78 89 87 77 68 72 71 73
77 103 102 102 115 117 117 108 99 107 119 112 115 114 117 122 117 114 96 100 93 87 92 92 88 83 84 76 72 67 61 60 68 65 64 20 94 93 87 78 73 77 75
107 104 106 115 81 89 96 98 99 106 103 109 130 122 118 119 116 107 96 90 88 91 90 87 88 86 85 81 78 66 60 52 57 55 66 8 66 108 97 93 88 82 79
121 113 112 108 72 54 82 66 91 85 125 121 119 113 116 113 111 105 108 104 104 91 91 92 91 80 79 83 77 68 65 51 40 38 41 12 10 126 119 110 100 94 86
139 135 128 125 130 166 235 123 137 162 140 131 116 126 134 130 122 112 109 112 108 95 102 103 97 94 90 83 77 75 59 50 42 40 46 15 15 13 146 125 114 105 94
143 145 140 142 155 168 150 160 132 145 156 146 138 161 150 139 129 127 115 117 113 117 111 109 103 89 86 73 66 64 61 54 47 33 34 27 21 13 181 147 135 120 104
158 160 155 159 203 172 168 175 176 167 161 158 158 155 148 150 137 127 130 125 121 115 115 101 90 90 83 80 75 69 55 47 43 35 32 53 29 36 78 140 140 137 115
162 160 175 190 196 178 172 175 159 172 166 167 155 149 148 145 139 135 128 131 126 111 104 101 94 88 92 93 84 80 76 59 45 36 34 40 67 49 54 96 94 90 87
182 189 188 192 198 175 181 173 166 175 141 147 156 144 145 144 143 138 140 128 118 110 113 102 97 93 82 73 82 74 77 68 61 52 59 60 61 78 71 59 63 59 44
196 193 192 196 193 182 182 169 174 155 154 146 152 156 152 149 149 139 129 125 129 120 101 102 94 65 71 107 119 105 85 83 71 74 79 84 78 76 92 75 70 64 55
199 201 199 201 193 184 172 158 159 148 143 157 174 173 162 149 140 132 126 130 122 112 117 112 86 67 36 51 133 115 105 89 96 95 93 99 85 74 77 79 98 83 53
205 208 206 196 189 177 172 174 176 171 164 185 178 170 153 145 146 142 130 130 128 134 120 111 111 142 131 122 204 127 140 124 152 165 152 123 91 83 81 86 84 107 110
207 209 207 204 185 189 186 177 177 168 182 171 159 160 159 152 149 142 142 140 139 126 124 144 172 165 153 120 243 276 208 181 201 194 185 154 55 14 124 96 92 66 42
208 205 202 200 195 195 187 163 127 115 107 162 170 154 154 149 152 150 150 140 137 139 146 164 180 175 184 175 175 268 234 286 300 167 203 222 259 268 278 229 224 155 62
208 197 199 199 196 194 186 186 181 190 182 179 172 157 154 155 156 154 147 144 141 146 154 146 207 232 178 168 172 158 62 339 306 284 185 238 247 264 258 273 271 262 296
198 193 194 192 194 194 196 198 194 187 169 145 148 149 159 161 158 153 156 154 155 151 153 157 164 182 171 183 194 173 178 191 220 269 291 286 272 279 268 285 297 260 250
197 191 191 185 193 191 201 202 199 187 160 159 158 161 169 166 166 169 166 165 157 153 159 173 166 181 167 152 167 166 220 253 263 264 277 291 296 293 291 291 267 258 258